QPF
0.04 0.03 0.03 0.03 0.03 0.03 0.03 0.02 0.03 0.03 0.02 0.02 0.02 0.02 0.01 0.01 0.02 0.03 0.04 0.04 0.03 0.03 0.03 0.04 0.04 0.05 0.06 0.06 0.07 0.09 0.11 0.08 0.05 0.04 0.04 0.05 0.06 0.08
0.06 0.06 0.05 0.04 0.04 0.04 0.04 0.03 0.03 0.03 0.03 0.02 0.02 0.02 0.02 0.02 0.02 0.02 0.03 0.05 0.05 0.04 0.04 0.04 0.04 0.05 0.06 0.06 0.05 0.06 0.10 0.14 0.12 0.07 0.05 0.04 0.05 0.05
0.05 0.06 0.05 0.05 0.05 0.04 0.04 0.04 0.05 0.05 0.04 0.03 0.02 0.02 0.02 0.02 0.02 0.03 0.02 0.02 0.03 0.04 0.04 0.04 0.04 0.04 0.04 0.05 0.05 0.05 0.06 0.09 0.11 0.12 0.10 0.07 0.06 0.05
0.03 0.04 0.04 0.04 0.04 0.03 0.03 0.03 0.03 0.03 0.04 0.04 0.04 0.04 0.03 0.02 0.03 0.03 0.04 0.03 0.03 0.04 0.04 0.03 0.03 0.04 0.04 0.05 0.05 0.06 0.06 0.06 0.07 0.09 0.11 0.11 0.08 0.06
0.02 0.02 0.02 0.02 0.02 0.02 0.02 0.02 0.02 0.02 0.03 0.03 0.03 0.04 0.04 0.04 0.04 0.04 0.03 0.04 0.03 0.03 0.04 0.04 0.03 0.04 0.04 0.04 0.05 0.06 0.07 0.06 0.06 0.06 0.08 0.09 0.10 0.10
0.03 0.02 0.02 0.01 0.01 0.01 0.01 0.02 0.02 0.02 0.03 0.03 0.03 0.03 0.03 0.04 0.04 0.04 0.04 0.04 0.03 0.02 0.03 0.03 0.03 0.03 0.03 0.03 0.04 0.04 0.06 0.07 0.07 0.06 0.07 0.08 0.07 0.08
0.04 0.04 0.03 0.03 0.02 0.02 0.02 0.02 0.02 0.03 0.03 0.03 0.03 0.03 0.03 0.04 0.04 0.04 0.04 0.04 0.03 0.03 0.03 0.02 0.02 0.02 0.02 0.02 0.02 0.03 0.03 0.05 0.06 0.07 0.07 0.08 0.09 0.07
0.05 0.04 0.04 0.03 0.03 0.03 0.02 0.02 0.02 0.03 0.03 0.04 0.04 0.03 0.03 0.03 0.03 0.04 0.05 0.05 0.04 0.02 0.02 0.02 0.03 0.03 0.03 0.02 0.03 0.03 0.03 0.03 0.04 0.05 0.06 0.06 0.07 0.08
0.05 0.05 0.04 0.04 0.03 0.02 0.02 0.02 0.02 0.02 0.03 0.04 0.04 0.04 0.03 0.03 0.03 0.04 0.04 0.04 0.04 0.02 0.02 0.02 0.01 0.02 0.02 0.03 0.03 0.03 0.03 0.03 0.03 0.04 0.05 0.05 0.06 0.07
0.05 0.05 0.05 0.05 0.04 0.04 0.04 0.03 0.02 0.02 0.02 0.02 0.03 0.04 0.04 0.04 0.05 0.05 0.05 0.05 0.04 0.02 0.02 0.02 0.01 0.01 0.02 0.02 0.03 0.03 0.03 0.04 0.04 0.04 0.05 0.05 0.05 0.06
0.04 0.04 0.05 0.05 0.05 0.05 0.05 0.04 0.03 0.03 0.03 0.03 0.04 0.05 0.06 0.06 0.06 0.07 0.07 0.07 0.06 0.04 0.02 0.02 0.01 0.01 0.01 0.02 0.03 0.04 0.04 0.04 0.04 0.04 0.04 0.05 0.05 0.06
0.04 0.04 0.04 0.04 0.05 0.06 0.05 0.05 0.04 0.04 0.03 0.03 0.04 0.04 0.05 0.05 0.06 0.06 0.06 0.06 0.05 0.04 0.03 0.02 0.02 0.02 0.02 0.02 0.02 0.03 0.05 0.06 0.05 0.04 0.05 0.05 0.06 0.06
0.05 0.04 0.04 0.04 0.05 0.05 0.05 0.05 0.04 0.04 0.04 0.04 0.04 0.04 0.05 0.05 0.05 0.05 0.04 0.05 0.05 0.03 0.02 0.02 0.02 0.02 0.02 0.02 0.02 0.02 0.03 0.06 0.07 0.07 0.06 0.06 0.07 0.07
0.06 0.05 0.05 0.05 0.05 0.04 0.04 0.04 0.04 0.04 0.04 0.04 0.05 0.05 0.05 0.05 0.05 0.04 0.04 0.04 0.04 0.03 0.02 0.02 0.02 0.02 0.02 0.03 0.02 0.02 0.03 0.04 0.06 0.08 0.09 0.08 0.07 0.08
0.06 0.05 0.05 0.06 0.05 0.05 0.05 0.04 0.04 0.03 0.04 0.05 0.05 0.04 0.04 0.04 0.04 0.04 0.04 0.04 0.03 0.02 0.02 0.02 0.02 0.02 0.03 0.03 0.03 0.03 0.04 0.05 0.06 0.07 0.08 0.10 0.09 0.09
0.07 0.06 0.06 0.05 0.05 0.05 0.05 0.05 0.04 0.04 0.03 0.03 0.03 0.04 0.05 0.05 0.06 0.05 0.05 0.04 0.03 0.03 0.02 0.02 0.02 0.02 0.03 0.02 0.02 0.03 0.03 0.04 0.05 0.06 0.07 0.08 0.09 0.09
0.06 0.06 0.06 0.05 0.05 0.05 0.05 0.04 0.04 0.04 0.04 0.04 0.03 0.04 0.05 0.05 0.06 0.06 0.05 0.04 0.04 0.03 0.03 0.02 0.02 0.02 0.03 0.03 0.03 0.03 0.03 0.04 0.05 0.06 0.07 0.08 0.09 0.09
0.06 0.05 0.04 0.04 0.03 0.03 0.04 0.04 0.04 0.04 0.04 0.04 0.04 0.04 0.04 0.05 0.05 0.05 0.05 0.04 0.04 0.04 0.03 0.03 0.03 0.03 0.04 0.04 0.03 0.03 0.03 0.04 0.05 0.06 0.07 0.07 0.08 0.08
0.06 0.05 0.03 0.03 0.03 0.03 0.03 0.04 0.04 0.04 0.04 0.04 0.04 0.05 0.05 0.05 0.05 0.05 0.05 0.05 0.04 0.04 0.04 0.03 0.03 0.04 0.04 0.03 0.03 0.03 0.03 0.04 0.05 0.06 0.07 0.07 0.06 0.06
0.04 0.04 0.04 0.03 0.03 0.03 0.03 0.03 0.03 0.03 0.03 0.04 0.04 0.05 0.05 0.05 0.05 0.05 0.05 0.05 0.05 0.04 0.04 0.04 0.04 0.04 0.04 0.03 0.02 0.02 0.02 0.03 0.04 0.06 0.07 0.07 0.06 0.05
0.03 0.03 0.03 0.03 0.03 0.03 0.03 0.03 0.02 0.02 0.02 0.03 0.03 0.04 0.04 0.04 0.04 0.04 0.04 0.04 0.05 0.05 0.05 0.03 0.03 0.03 0.03 0.03 0.03 0.02 0.02 0.03 0.03 0.04 0.05 0.06 0.07 0.07
0.02 0.02 0.03 0.03 0.03 0.03 0.03 0.03 0.02 0.02 0.02 0.03 0.03 0.03 0.03 0.04 0.04 0.04 0.04 0.03 0.03 0.04 0.04 0.03 0.03 0.03 0.04 0.04 0.03 0.02 0.03 0.03 0.04 0.04 0.05 0.05 0.05 0.05
0.02 0.02 0.02 0.03 0.03 0.03 0.03 0.03 0.02 0.02 0.02 0.02 0.02 0.02 0.03 0.03 0.03 0.03 0.03 0.03 0.03 0.03 0.03 0.04 0.04 0.03 0.03 0.04 0.03 0.03 0.03 0.03 0.03 0.04 0.05 0.04 0.03 0.03
MSLP
1031.97 1032.13 1032.31 1032.50 1032.70 1032.90 1033.07 1033.20 1033.28 1033.29 1033.22 1033.06 1032.82 1032.49 1032.08 1031.59 1031.05 1030.46 1029.83 1029.18 1028.54 1027.91 1027.33 1026.81 1026.37 1026.00 1025.69 1025.44 1025.19 1024.92 1024.57 1024.10 1023.49 1022.72 1021.81 1020.79 1019.70 1018.63
1031.83 1031.98 1032.13 1032.30 1032.47 1032.65 1032.82 1032.97 1033.09 1033.16 1033.17 1033.09 1032.94 1032.69 1032.36 1031.94 1031.46 1030.92 1030.33 1029.71 1029.09 1028.49 1027.93 1027.43 1027.01 1026.67 1026.40 1026.18 1025.99 1025.78 1025.49 1025.10 1024.56 1023.86 1023.01 1022.03 1020.97 1019.90
1031.53 1031.64 1031.76 1031.89 1032.04 1032.20 1032.38 1032.56 1032.72 1032.86 1032.94 1032.97 1032.91 1032.77 1032.54 1032.22 1031.82 1031.34 1030.82 1030.26 1029.69 1029.12 1028.59 1028.10 1027.69 1027.35 1027.08 1026.87 1026.68 1026.49 1026.24 1025.91 1025.45 1024.85 1024.10 1023.22 1022.25 1021.24
1031.07 1031.15 1031.24 1031.34 1031.47 1031.62 1031.81 1032.01 1032.22 1032.42 1032.58 1032.70 1032.74 1032.70 1032.58 1032.36 1032.07 1031.69 1031.26 1030.79 1030.28 1029.77 1029.28 1028.82 1028.40 1028.05 1027.75 1027.50 1027.29 1027.09 1026.86 1026.56 1026.18 1025.68 1025.05 1024.31 1023.48 1022.61
1030.48 1030.55 1030.62 1030.70 1030.82 1030.96 1031.15 1031.38 1031.62 1031.88 1032.11 1032.30 1032.43 1032.49 1032.46 1032.35 1032.17 1031.91 1031.59 1031.22 1030.82 1030.39 1029.96 1029.54 1029.13 1028.76 1028.42 1028.13 1027.86 1027.62 1027.37 1027.10 1026.77 1026.37 1025.88 1025.30 1024.65 1023.94
1029.81 1029.87 1029.93 1030.01 1030.12 1030.27 1030.47 1030.71 1030.98 1031.27 1031.54 1031.78 1031.98 1032.11 1032.17 1032.15 1032.08 1031.94 1031.75 1031.51 1031.23 1030.92 1030.58 1030.22 1029.84 1029.47 1029.10 1028.76 1028.43 1028.14 1027.86 1027.58 1027.29 1026.97 1026.61 1026.18 1025.71 1025.19
1029.08 1029.14 1029.21 1029.29 1029.41 1029.57 1029.77 1030.02 1030.31 1030.61 1030.90 1031.17 1031.40 1031.57 1031.69 1031.76 1031.78 1031.76 1031.70 1031.60 1031.47 1031.29 1031.07 1030.80 1030.49 1030.14 1029.77 1029.39 1029.02 1028.67 1028.35 1028.06 1027.79 1027.53 1027.26 1026.97 1026.65 1026.30
1028.30 1028.37 1028.45 1028.54 1028.67 1028.84 1029.05 1029.31 1029.60 1029.90 1030.19 1030.46 1030.69 1030.89 1031.04 1031.17 1031.27 1031.36 1031.42 1031.47 1031.49 1031.46 1031.38 1031.23 1031.01 1030.72 1030.38 1030.00 1029.60 1029.22 1028.87 1028.56 1028.29 1028.06 1027.86 1027.67 1027.47 1027.25
1027.47 1027.54 1027.63 1027.74 1027.88 1028.06 1028.28 1028.54 1028.83 1029.11 1029.39 1029.65 1029.88 1030.07 1030.25 1030.42 1030.58 1030.76 1030.94 1031.12 1031.28 1031.41 1031.48 1031.46 1031.36 1031.16 1030.88 1030.54 1030.16 1029.77 1029.41 1029.09 1028.82 1028.61 1028.44 1028.31 1028.18 1028.06
1026.57 1026.64 1026.73 1026.85 1027.00 1027.20 1027.43 1027.70 1027.97 1028.25 1028.51 1028.76 1028.97 1029.17 1029.36 1029.55 1029.77 1030.01 1030.29 1030.58 1030.87 1031.14 1031.35 1031.47 1031.50 1031.42 1031.24 1030.97 1030.64 1030.29 1029.95 1029.64 1029.38 1029.18 1029.03 1028.92 1028.83 1028.74
1025.62 1025.67 1025.75 1025.87 1026.03 1026.24 1026.48 1026.75 1027.03 1027.30 1027.56 1027.80 1028.01 1028.21 1028.41 1028.63 1028.89 1029.19 1029.53 1029.91 1030.31 1030.69 1031.02 1031.28 1031.43 1031.48 1031.41 1031.25 1031.01 1030.74 1030.45 1030.18 1029.95 1029.77 1029.63 1029.52 1029.44 1029.36
1024.61 1024.63 1024.70 1024.82 1024.98 1025.20 1025.45 1025.73 1026.01 1026.30 1026.56 1026.81 1027.03 1027.25 1027.47 1027.72 1028.02 1028.36 1028.76 1029.21 1029.68 1030.14 1030.57 1030.92 1031.19 1031.35 1031.41 1031.36 1031.24 1031.07 1030.87 1030.67 1030.50 1030.35 1030.22 1030.12 1030.03 1029.94
1023.57 1023.57 1023.62 1023.73 1023.90 1024.11 1024.37 1024.66 1024.96 1025.26 1025.54 1025.81 1026.07 1026.32 1026.59 1026.88 1027.22 1027.61 1028.05 1028.54 1029.05 1029.56 1030.05 1030.48 1030.82 1031.08 1031.25 1031.32 1031.32 1031.26 1031.18 1031.07 1030.97 1030.88 1030.79 1030.70 1030.61 1030.50
1022.56 1022.53 1022.57 1022.67 1022.83 1023.05 1023.31 1023.60 1023.91 1024.23 1024.55 1024.85 1025.16 1025.46 1025.78 1026.13 1026.52 1026.95 1027.43 1027.95 1028.48 1029.02 1029.53 1030.00 1030.40 1030.73 1030.97 1031.15 1031.25 1031.31 1031.34 1031.34 1031.33 1031.30 1031.26 1031.20 1031.11 1031.00
1021.61 1021.57 1021.59 1021.69 1021.84 1022.05 1022.30 1022.60 1022.92 1023.25 1023.59 1023.94 1024.30 1024.67 1025.06 1025.48 1025.93 1026.41 1026.93 1027.46 1028.01 1028.55 1029.07 1029.54 1029.96 1030.32 1030.63 1030.87 1031.07 1031.22 1031.35 1031.45 1031.53 1031.57 1031.59 1031.56 1031.49 1031.38
1020.76 1020.71 1020.74 1020.82 1020.96 1021.16 1021.40 1021.68 1021.99 1022.33 1022.69 1023.08 1023.49 1023.93 1024.39 1024.88 1025.40 1025.94 1026.50 1027.06 1027.62 1028.16 1028.67 1029.13 1029.55 1029.92 1030.24 1030.53 1030.78 1031.01 1031.20 1031.38 1031.52 1031.63 1031.70 1031.71 1031.66 1031.55
1020.02 1019.98 1020.01 1020.09 1020.21 1020.39 1020.60 1020.85 1021.14 1021.47 1021.84 1022.25 1022.70 1023.19 1023.72 1024.28 1024.87 1025.48 1026.09 1026.68 1027.26 1027.80 1028.30 1028.75 1029.16 1029.52 1029.85 1030.15 1030.42 1030.68 1030.92 1031.13 1031.32 1031.46 1031.56 1031.59 1031.56 1031.46
1019.38 1019.36 1019.39 1019.46 1019.57 1019.71 1019.89 1020.10 1020.36 1020.66 1021.01 1021.42 1021.89 1022.42 1023.00 1023.63 1024.28 1024.95 1025.61 1026.25 1026.86 1027.42 1027.92 1028.37 1028.77 1029.12 1029.44 1029.74 1030.02 1030.28 1030.52 1030.74 1030.94 1031.09 1031.18 1031.22 1031.19 1031.09
1018.84 1018.83 1018.86 1018.92 1019.00 1019.10 1019.24 1019.40 1019.60 1019.86 1020.18 1020.58 1021.04 1021.59 1022.20 1022.87 1023.57 1024.29 1025.01 1025.70 1026.34 1026.94 1027.47 1027.94 1028.34 1028.71 1029.03 1029.32 1029.59 1029.84 1030.07 1030.27 1030.44 1030.57 1030.64 1030.65 1030.60 1030.50
1018.36 1018.35 1018.37 1018.41 1018.46 1018.53 1018.61 1018.72 1018.87 1019.08 1019.35 1019.71 1020.16 1020.69 1021.30 1021.99 1022.72 1023.48 1024.23 1024.97 1025.67 1026.31 1026.89 1027.40 1027.85 1028.24 1028.59 1028.90 1029.17 1029.41 1029.62 1029.79 1029.92 1030.00 1030.03 1030.00 1029.91 1029.78
1017.94 1017.91 1017.91 1017.92 1017.94 1017.96 1018.00 1018.06 1018.16 1018.31 1018.54 1018.84 1019.25 1019.75 1020.34 1021.01 1021.74 1022.51 1023.30 1024.07 1024.82 1025.52 1026.16 1026.74 1027.26 1027.72 1028.12 1028.46 1028.76 1029.01 1029.22 1029.37 1029.46 1029.49 1029.47 1029.38 1029.25 1029.07
1017.59 1017.52 1017.47 1017.45 1017.43 1017.42 1017.41 1017.43 1017.48 1017.58 1017.75 1018.01 1018.35 1018.80 1019.34 1019.98 1020.68 1021.44 1022.23 1023.02 1023.81 1024.57 1025.29 1025.96 1026.56 1027.11 1027.60 1028.02 1028.38 1028.67 1028.89 1029.04 1029.11 1029.11 1029.04 1028.91 1028.73 1028.52
1017.31 1017.18 1017.08 1017.00 1016.94 1016.89 1016.85 1016.84 1016.85 1016.91 1017.03 1017.23 1017.51 1017.90 1018.37 1018.94 1019.59 1020.31 1021.08 1021.88 1022.70 1023.51 1024.30 1025.05 1025.76 1026.42 1027.01 1027.54 1027.98 1028.35 1028.62 1028.80 1028.88 1028.88 1028.79 1028.63 1028.42 1028.18
Thickness
5455 5455 5456 5455 5455 5455 5455 5456 5457 5457 5462 5463 5464 5466 5467 5468 5469 5471 5473 5476 5478 5481 5483 5486 5488 5491 5493 5496 5498 5500 5503 5504 5506 5508 5510 5511 5513 5515
5441 5441 5442 5442 5443 5443 5442 5443 5444 5445 5448 5452 5451 5452 5453 5454 5454 5456 5459 5461 5464 5467 5469 5472 5474 5476 5478 5481 5484 5487 5489 5492 5494 5496 5497 5500 5501 5503
5428 5428 5428 5429 5430 5430 5429 5429 5430 5431 5433 5437 5437 5438 5438 5439 5441 5442 5444 5446 5449 5452 5455 5457 5459 5461 5464 5467 5470 5473 5475 5478 5480 5483 5485 5487 5489 5491
5415 5416 5415 5416 5417 5417 5417 5417 5417 5418 5419 5422 5423 5423 5424 5425 5427 5428 5430 5432 5435 5438 5440 5442 5444 5447 5449 5452 5455 5458 5461 5463 5466 5469 5472 5474 5476 5477
5402 5403 5403 5404 5404 5404 5405 5404 5405 5405 5406 5407 5409 5410 5411 5412 5412 5414 5416 5418 5421 5424 5426 5428 5430 5432 5434 5437 5440 5443 5447 5450 5452 5455 5456 5458 5461 5462
5390 5391 5391 5392 5393 5392 5392 5392 5392 5392 5392 5393 5395 5396 5397 5397 5397 5400 5402 5404 5407 5409 5411 5413 5415 5417 5420 5423 5426 5429 5432 5434 5437 5439 5442 5444 5446 5448
5377 5377 5378 5378 5380 5380 5380 5379 5378 5378 5378 5379 5381 5382 5383 5383 5384 5386 5388 5389 5393 5394 5396 5398 5400 5403 5405 5408 5410 5414 5417 5420 5423 5425 5427 5430 5431 5433
5364 5364 5364 5365 5365 5366 5366 5367 5367 5366 5366 5366 5368 5370 5372 5371 5371 5371 5372 5373 5378 5381 5380 5384 5385 5388 5391 5394 5397 5400 5403 5405 5408 5411 5413 5415 5417 5419
5350 5350 5351 5350 5351 5351 5351 5352 5352 5352 5353 5354 5356 5358 5358 5359 5358 5358 5358 5359 5363 5365 5364 5369 5371 5374 5377 5379 5382 5386 5389 5391 5394 5396 5399 5401 5404 5405
5336 5336 5336 5337 5336 5336 5337 5337 5337 5338 5339 5340 5342 5344 5343 5343 5343 5344 5344 5344 5347 5349 5349 5352 5356 5358 5362 5365 5368 5371 5374 5377 5379 5382 5384 5387 5389 5391
5322 5323 5323 5323 5324 5324 5323 5322 5323 5323 5323 5325 5327 5328 5328 5329 5328 5327 5327 5327 5332 5337 5335 5336 5340 5343 5347 5351 5354 5357 5359 5362 5364 5367 5370 5373 5375 5377
5308 5308 5309 5309 5310 5310 5309 5308 5308 5308 5308 5309 5311 5312 5313 5313 5313 5313 5313 5313 5316 5321 5323 5322 5324 5325 5331 5338 5340 5342 5344 5347 5350 5353 5355 5358 5361 5362
5293 5294 5294 5295 5296 5296 5295 5295 5295 5294 5293 5294 5296 5297 5297 5298 5299 5299 5299 5300 5302 5307 5310 5308 5309 5311 5313 5321 5325 5328 5330 5333 5336 5338 5341 5344 5347 5349
5278 5279 5280 5281 5281 5281 5281 5282 5281 5280 5279 5279 5281 5282 5283 5284 5285 5286 5286 5287 5289 5292 5295 5295 5296 5298 5300 5304 5309 5314 5316 5320 5323 5326 5328 5330 5333 5335
5264 5265 5266 5266 5265 5265 5265 5266 5265 5264 5264 5265 5267 5268 5269 5270 5271 5272 5273 5274 5276 5279 5280 5282 5283 5286 5287 5291 5295 5298 5301 5306 5309 5312 5315 5317 5319 5321
5247 5249 5250 5250 5250 5250 5249 5248 5249 5249 5250 5251 5252 5253 5254 5255 5257 5257 5258 5260 5262 5266 5268 5269 5271 5273 5275 5278 5281 5285 5288 5292 5297 5299 5301 5304 5306 5308
5232 5232 5233 5233 5233 5233 5233 5233 5232 5233 5234 5235 5236 5238 5239 5241 5242 5243 5244 5246 5248 5252 5255 5256 5258 5260 5262 5264 5267 5272 5275 5279 5283 5286 5287 5291 5294 5296
5217 5216 5216 5216 5216 5216 5217 5217 5217 5218 5218 5219 5221 5222 5224 5226 5228 5229 5231 5232 5235 5238 5241 5242 5243 5245 5247 5251 5256 5259 5262 5266 5269 5272 5274 5277 5282 5284
5200 5200 5200 5200 5199 5199 5200 5201 5202 5203 5204 5205 5206 5207 5209 5211 5213 5215 5217 5219 5222 5225 5227 5229 5230 5232 5234 5240 5245 5247 5249 5253 5255 5258 5261 5265 5269 5273
5183 5183 5184 5184 5184 5184 5184 5185 5187 5188 5189 5190 5192 5193 5194 5196 5198 5201 5203 5205 5208 5211 5214 5217 5218 5221 5224 5228 5231 5234 5236 5239 5241 5245 5248 5251 5255 5259
5167 5167 5168 5168 5168 5168 5169 5170 5171 5173 5175 5176 5178 5180 5181 5183 5185 5187 5189 5193 5195 5198 5201 5206 5209 5210 5210 5212 5215 5221 5224 5227 5230 5232 5235 5237 5241 5244
5152 5153 5154 5154 5155 5155 5155 5156 5157 5159 5161 5163 5165 5166 5168 5170 5171 5173 5175 5178 5182 5185 5189 5192 5194 5196 5197 5200 5204 5208 5211 5214 5217 5220 5223 5227 5229 5233
5137 5138 5140 5141 5141 5141 5142 5143 5145 5147 5149 5151 5152 5154 5156 5157 5159 5161 5163 5165 5168 5171 5174 5177 5180 5182 5184 5187 5190 5194 5197 5201 5204 5207 5211 5215 5219 5224